Theta_e
305 297 293 296 299 298 297 296 295 299 302 298 299 299 301 305 306 306 307 307 308 312 318 323 324 327 330 330 330 331 331 332 333 333 333 333 332 334 334 335 334 333 332 330
299 294 297 299 299 298 296 294 294 298 299 297 298 298 301 303 304 305 306 308 308 309 310 313 316 322 323 325 330 331 331 332 332 332 333 333 333 333 333 334 334 334 334 332
294 296 300 298 297 296 296 293 292 292 296 298 296 293 296 300 303 305 306 308 308 309 310 311 313 315 318 320 322 326 329 331 332 332 331 331 332 332 331 332 332 333 333 331
297 300 297 297 295 296 290 297 296 294 292 287 295 285 293 297 298 301 303 305 306 308 309 310 312 313 315 318 321 321 322 326 329 332 330 328 327 325 328 330 332 333 333 332
294 296 295 294 295 298 293 298 296 296 293 291 291 288 291 296 294 297 300 303 305 307 308 308 310 312 314 319 322 321 320 320 324 327 328 328 327 328 329 329 331 331 332 332
297 302 299 297 298 299 299 296 296 295 292 284 289 288 288 293 295 297 300 302 303 305 307 308 310 312 313 316 317 318 318 318 320 324 327 326 326 326 327 328 327 328 329 329
293 295 299 300 295 299 297 292 284 283 283 281 289 288 290 296 297 298 298 300 303 304 305 306 306 307 309 311 314 316 317 315 317 321 324 326 326 327 326 327 326 326 325 325
286 284 294 299 296 292 293 291 284 277 279 282 288 283 289 297 300 300 301 301 303 303 304 305 306 308 309 310 311 312 314 315 316 318 322 323 325 326 326 326 326 326 326 326
286 286 297 297 299 297 292 288 294 286 283 281 285 289 295 297 297 298 299 300 301 302 304 304 306 307 308 310 310 311 312 314 315 315 318 321 323 324 324 325 326 326 327 325
291 285 293 296 298 298 295 297 286 287 278 277 283 285 287 292 294 296 298 299 301 303 303 303 304 307 310 310 310 311 313 314 316 316 319 320 322 323 324 324 323 322 318 313
294 289 288 294 291 291 291 289 290 291 287 281 280 285 294 294 295 296 297 299 301 302 302 303 304 307 307 308 309 310 311 313 316 318 319 319 320 321 320 317 316 314 311 309
294 289 284 287 295 297 295 292 291 285 284 287 285 286 296 297 297 297 298 300 301 301 302 304 304 306 305 305 306 308 309 309 311 313 313 314 314 313 313 312 311 310 308 307
293 286 281 284 288 292 290 292 293 293 291 285 282 286 298 299 299 300 299 300 300 300 302 303 304 303 305 306 306 305 306 306 307 307 307 308 307 308 308 308 308 306 304 302
292 288 285 281 285 288 286 289 291 290 285 286 287 289 294 296 297 299 299 301 302 301 301 302 303 305 306 307 306 305 305 306 306 305 305 305 305 305 306 306 304 302 301 299
290 283 284 284 284 285 285 287 288 287 289 285 287 289 293 295 297 299 301 301 301 301 301 301 303 304 305 305 305 304 304 304 305 305 304 304 305 304 304 303 301 300 299 297
290 282 283 279 284 284 283 285 286 289 289 288 288 290 298 299 300 300 301 301 301 300 302 303 303 303 304 305 304 304 303 303 304 303 303 303 302 301 299 299 298 297 296 296
286 284 281 277 283 282 278 283 285 286 288 289 285 291 297 296 296 298 300 301 301 301 302 303 304 305 305 306 305 303 303 303 301 301 301 300 299 297 296 296 295 294 294 293
285 283 283 277 279 271 282 288 287 286 288 289 291 293 295 296 298 301 302 302 302 303 304 304 305 306 307 303 302 301 301 300 299 299 299 298 294 294 293 292 292 292 291 290
289 285 279 276 275 279 282 285 284 282 283 289 289 291 293 295 297 297 301 302 303 303 305 306 302 296 296 293 293 295 296 295 293 291 291 292 292 291 290 289 289 289 289 288
286 286 280 279 273 271 281 286 290 289 280 291 290 291 293 295 287 291 299 299 298 297 293 291 289 288 287 287 290 290 287 286 284 283 283 284 286 288 288 287 286 285 285 284
278 279 276 277 275 279 286 288 290 278 280 290 291 291 293 291 294 297 293 292 288 286 285 285 283 281 281 283 284 282 280 278 279 280 280 280 281 281 282 282 282 282 282 282
278 277 277 277 275 273 289 288 282 287 291 291 293 294 293 294 294 294 289 287 285 283 282 281 279 276 276 279 279 277 275 275 276 277 277 277 277 278 279 279 279 280 280 280
276 281 279 281 280 289 292 290 294 293 292 292 291 292 291 289 290 290 286 283 281 279 278 277 275 273 272 273 275 273 272 273 273 274 273 274 274 275 276 277 277 278 278 278
283 286 281 281 285 287 289 290 291 292 291 291 286 284 285 284 286 284 281 279 277 276 275 275 273 271 270 270 269 269 270 271 271 272 272 273 272 274 274 275 275 276 276 275
284 285 282 282 285 287 288 289 290 289 287 284 282 280 281 282 282 281 278 276 274 273 272 272 271 269 268 268 267 266 267 269 271 271 271 272 272 272 273 273 272 273 274 273
285 283 281 280 286 286 287 286 283 283 283 281 280 278 277 278 277 276 274 273 272 271 270 269 268 267 266 266 266 266 266 267 268 270 270 268 270 271 271 271 272 272 272 273
Wind_Speed
10 9 14 18 19 16 13 13 15 13 1 5 15 18 20 16 19 18 16 16 18 18 16 14 13 13 15 15 15 17 17 17 13 11 11 10 11 9 9 10 12 12 12 12
7 18 16 11 12 15 18 15 15 12 1 5 13 19 18 18 18 20 21 20 20 17 15 15 18 16 16 16 16 16 17 17 15 11 10 10 10 10 10 9 10 13 12 12
16 1 5 10 10 11 16 18 14 13 3 12 13 23 23 22 25 22 21 20 20 20 20 18 17 16 15 17 17 16 16 16 15 15 9 8 8 8 9 10 10 12 13 11
12 16 3 11 16 13 16 14 13 13 7 9 2 12 15 9 8 17 14 17 20 21 20 19 17 18 18 17 14 15 15 16 14 16 12 14 11 11 10 9 9 9 12 13
8 8 15 13 13 11 8 1 6 11 13 12 18 12 6 11 14 13 14 18 18 17 18 18 18 17 14 7 7 9 11 13 13 13 14 11 13 9 8 8 9 9 8 10
14 2 9 12 9 11 3 5 3 4 6 10 15 15 15 16 17 14 16 17 15 15 13 12 12 10 10 8 10 10 12 13 12 13 15 16 15 13 8 7 6 6 6 7
6 12 2 5 10 8 13 11 4 6 6 11 3 14 22 6 10 7 10 10 10 9 8 10 10 9 9 11 11 11 14 15 15 15 15 16 15 13 12 9 7 8 7 7
10 10 18 12 13 7 18 16 7 8 7 7 2 13 10 4 9 11 12 10 9 8 9 11 11 8 8 8 9 11 12 13 12 12 13 12 13 8 8 9 8 7 7 7
11 12 7 8 12 13 10 16 17 8 2 5 9 13 15 9 10 13 13 10 9 10 10 10 10 9 7 7 7 8 9 8 10 10 9 10 10 10 8 9 7 6 6 5
9 8 5 16 10 17 15 7 9 8 8 10 13 17 13 7 9 12 14 12 10 6 7 6 7 6 5 5 5 5 6 7 7 6 7 7 7 7 6 6 7 7 6 8
11 7 3 5 14 17 12 5 8 8 12 10 12 10 7 8 8 8 9 6 7 4 5 4 4 3 3 3 2 2 3 4 5 6 6 7 7 7 6 6 7 7 7 8
19 6 10 16 7 15 21 18 14 8 13 11 16 17 7 4 5 4 3 4 5 5 4 3 4 4 3 2 2 3 2 2 2 3 4 6 7 7 7 7 8 8 8 7
10 5 12 9 3 5 9 14 17 20 17 17 10 15 10 11 8 12 14 7 4 5 7 3 3 4 5 4 4 4 4 4 3 3 4 4 5 6 6 6 6 6 6 6
7 4 11 13 14 7 9 16 18 15 8 16 18 28 22 17 18 15 13 12 8 6 8 6 5 6 5 4 6 7 6 5 5 5 5 5 6 6 5 4 5 6 7 7
8 4 3 9 10 14 19 18 15 20 23 23 25 28 27 21 20 17 15 14 13 12 9 8 8 7 6 6 6 6 7 6 7 7 7 9 6 6 6 6 6 6 6 6
9 8 6 15 16 12 15 16 15 15 22 24 26 28 28 24 22 23 19 13 13 13 16 17 12 10 9 8 9 7 8 8 7 9 10 6 6 6 5 5 6 6 5 4
7 4 5 15 9 5 7 11 13 15 19 21 25 23 23 23 20 19 21 21 18 16 17 17 16 13 9 9 5 6 5 5 7 8 7 6 7 9 9 7 7 6 6 6
5 6 5 10 7 15 8 14 19 16 14 16 19 20 23 24 22 18 18 20 19 18 18 18 16 16 13 4 3 2 2 3 2 3 4 5 6 6 6 6 6 5 5 5
16 12 8 8 14 12 14 13 16 17 23 17 17 19 23 23 20 21 17 21 20 20 19 17 8 6 5 7 7 5 3 5 7 7 7 7 3 4 6 6 6 5 5 4
17 16 11 10 13 17 16 18 17 19 17 15 18 19 22 20 15 15 14 9 9 13 10 8 7 7 7 8 6 4 6 6 7 6 6 6 6 5 5 6 6 3 4 3
4 6 14 14 12 8 10 12 15 16 13 22 20 18 17 17 12 14 10 4 3 5 6 6 8 8 8 8 6 7 7 8 6 6 6 7 7 7 6 6 5 4 4 3
9 7 7 8 10 14 14 13 17 14 14 13 12 8 10 12 14 9 6 4 6 6 7 7 7 7 8 9 6 8 9 7 6 5 7 7 7 6 5 5 5 4 4 3
12 14 11 8 6 6 11 9 8 6 7 6 7 5 5 11 14 11 6 3 6 7 6 7 6 8 8 10 9 8 8 8 7 6 7 6 6 6 6 5 5 3 3 3
17 17 11 14 18 22 23 23 22 14 10 5 4 5 7 11 9 6 2 3 5 6 6 5 6 7 7 8 10 9 8 7 5 5 6 5 6 5 6 5 4 4 4 4
13 9 14 18 22 22 22 22 15 5 2 4 1 2 6 8 4 1 3 3 5 6 6 6 7 6 6 7 8 8 9 8 5 5 5 6 5 6 5 5 5 5 5 5
12 21 14 17 21 15 14 4 2 3 4 5 5 1 3 2 2 5 5 4 4 7 7 7 6 6 4 5 7 7 6 7 6 5 5 5 5 4 4 4 3 3 4 7
Wind_Direction
197 222 206 212 216 234 285 279 249 237 185 275 248 251 256 254 253 249 252 257 254 247 244 243 233 230 223 219 216 213 209 209 206 204 207 210 215 215 220 218 219 217 216 209
195 235 242 240 238 235 244 254 249 258 294 263 273 268 265 254 254 252 252 248 250 250 245 244 239 233 228 226 222 220 217 210 207 203 206 212 215 210 221 224 225 220 215 206
220 234 254 225 223 225 238 240 249 251 277 258 276 276 259 248 245 246 248 250 251 252 251 241 227 226 227 224 225 216 218 215 209 209 204 210 223 220 210 213 213 213 214 206
239 238 206 207 230 218 242 226 253 271 263 260 88 286 278 271 267 228 236 247 247 240 242 244 241 236 230 222 221 223 219 216 212 201 206 205 207 211 214 211 209 205 202 204
212 199 215 226 226 213 252 107 227 241 251 276 258 262 264 244 255 254 234 235 242 243 241 246 247 244 255 271 229 216 224 226 214 209 204 210 219 225 227 211 193 195 194 204
235 27 216 219 212 214 155 162 176 226 246 250 243 241 260 246 247 240 244 252 250 248 254 257 264 270 262 247 241 225 223 226 220 211 207 212 214 221 222 210 182 189 191 194
245 238 191 219 192 204 191 182 186 215 199 249 235 224 247 278 288 263 264 273 271 253 249 250 256 246 236 245 242 234 231 226 209 206 207 210 214 219 222 209 193 192 189 187
215 229 210 185 208 191 203 209 206 229 225 267 159 233 248 344 297 289 259 253 256 257 269 262 256 253 249 256 252 241 232 236 223 210 212 212 213 216 215 207 200 201 191 188
221 235 180 189 201 192 184 224 231 291 192 263 245 252 271 248 233 249 259 270 265 263 271 276 260 247 264 271 258 248 243 229 242 224 222 220 211 210 210 207 199 193 185 165
247 263 201 200 210 229 229 208 202 215 230 238 245 258 266 249 238 251 254 263 271 261 273 276 268 279 301 287 265 227 235 235 229 215 206 207 203 200 201 186 178 168 159 154
228 236 156 173 205 196 210 216 232 243 231 244 269 258 24 38 2 311 308 345 306 295 300 305 269 273 286 284 269 258 215 191 188 189 187 187 185 189 176 176 172 165 151 161
214 209 229 223 227 243 225 213 197 213 209 232 258 257 159 102 60 17 41 354 338 317 295 315 317 318 287 269 267 249 216 210 177 171 174 176 168 173 177 178 170 163 166 166
195 216 224 229 272 258 237 225 239 249 265 244 236 255 232 249 277 281 296 287 259 304 284 260 264 242 250 245 241 243 223 201 181 169 182 182 180 183 189 182 167 161 160 158
85 285 256 263 254 307 219 228 229 234 241 241 243 265 261 273 283 274 273 288 298 261 256 264 239 232 227 238 242 241 230 210 196 186 200 207 204 196 194 178 167 171 165 169
146 264 342 328 342 327 310 300 279 249 252 248 261 260 267 268 269 273 284 270 283 280 269 242 239 252 254 236 244 241 244 212 210 212 209 216 199 196 196 179 179 175 175 171
180 247 259 275 291 288 260 287 278 272 273 273 270 270 274 286 301 299 297 289 283 272 268 271 263 257 262 242 227 227 228 221 196 212 219 212 184 180 180 173 172 165 165 155
189 210 206 261 269 225 254 270 274 274 279 271 260 266 277 280 281 271 266 263 257 257 265 270 283 279 254 258 229 234 235 212 201 216 220 204 188 188 188 175 166 172 172 154
226 214 239 267 284 252 269 242 249 263 275 286 290 279 279 281 286 288 287 280 276 273 267 261 265 274 289 19 9 342 306 291 212 233 239 213 190 196 168 165 166 152 147 146
234 233 248 242 248 269 256 256 255 268 270 271 263 273 274 280 283 279 263 254 264 268 268 271 325 9 25 21 349 325 16 47 57 45 30 8 314 192 162 164 148 120 125 120
233 229 235 238 257 261 259 256 267 253 255 262 263 259 271 278 282 290 295 341 359 7 19 34 38 38 33 14 9 62 67 59 49 36 46 42 32 60 87 96 99 85 84 99
184 223 237 241 250 255 259 265 260 250 253 250 260 266 250 261 289 330 12 20 31 31 43 45 48 52 28 14 45 67 54 48 28 38 49 48 49 65 63 76 73 77 78 70
211 198 211 218 243 257 232 264 247 237 253 257 278 288 296 294 303 321 345 356 10 25 31 39 80 57 38 29 42 63 58 27 16 40 57 50 41 42 52 66 73 77 77 85
242 231 250 235 246 281 299 290 313 331 311 306 301 312 287 290 290 316 318 8 44 38 39 45 54 69 41 38 34 57 34 24 17 33 44 45 42 44 35 45 41 60 57 60
250 247 254 263 252 256 265 274 278 281 257 310 329 310 281 275 298 314 357 74 75 50 45 57 75 59 54 51 51 37 18 13 25 38 34 42 47 41 36 49 39 35 34 31
250 255 241 253 255 261 268 271 295 333 306 287 256 297 304 301 309 1 82 101 109 98 70 50 62 66 39 41 53 33 17 3 29 40 36 31 38 27 37 41 39 27 40 22
239 251 250 248 255 258 267 158 124 287 319 327 305 269 33 14 95 100 91 68 77 87 80 67 56 61 39 55 51 39 21 13 15 39 31 28 25 23 23 24 35 61 2 351